This is the latest recevied weather packets stored in our database for station/object KD0MAC. If no packets are shown the sender has not sent any weather packets the latest 10 day(s).
| Time | Temp. | Humidity | Pressure | Rain* | Wind** | Luminosity | Snow |
|---|---|---|---|---|---|---|---|
| 1777066941 | 25° C | 23% | 1008.1 hPa | 0 mm | - | 403 W/m² | - |
| 1777066640 | 25° C | 22% | 1008.5 hPa | 0 mm | - | 411 W/m² | - |
| 1777066341 | 25° C | 22% | 1008.5 hPa | 0 mm | - | 425 W/m² | - |
| 1777066040 | 25° C | 22% | 1008.5 hPa | 0 mm | - | 434 W/m² | - |
| 1777065741 | 25° C | 23% | 1008.5 hPa | 0 mm | - | 444 W/m² | - |
| 1777065441 | 25.56° C | 23% | 1008.5 hPa | 0 mm | - | 454 W/m² | - |
| 1777065140 | 25° C | 23% | 1008.8 hPa | 0 mm | - | 464 W/m² | - |
| 1777064841 | 26.11° C | 23% | 1008.8 hPa | 0 mm | - | 479 W/m² | - |
| 1777064541 | 25° C | 24% | 1009.1 hPa | 0 mm | - | 483 W/m² | - |
| 1777064241 | 24.44° C | 24% | 1009.1 hPa | 0 mm | - | 490 W/m² | - |
| 1777063941 | 25° C | 24% | 1009.1 hPa | 0 mm | - | 500 W/m² | - |
| 1777063640 | 24.44° C | 26% | 1009.5 hPa | 0 mm | - | 507 W/m² | - |
| 1777063341 | 24.44° C | 25% | 1009.5 hPa | 0 mm | - | 517 W/m² | - |
| 1777063041 | 24.44° C | 26% | 1009.5 hPa | 0 mm | - | 524 W/m² | - |
| 1777062741 | 25° C | 25% | 1009.5 hPa | 0 mm | - | 532 W/m² | - |
| 1777062441 | 25.56° C | 25% | 1009.8 hPa | 0 mm | - | 509 W/m² | - |
| 1777062140 | 25° C | 24% | 1009.8 hPa | 0 mm | - | 516 W/m² | - |
| 1777061841 | 25° C | 24% | 1009.8 hPa | 0 mm | - | 522 W/m² | - |
| 1777061540 | 24.44° C | 25% | 1009.8 hPa | 0 mm | - | 529 W/m² | - |
| 1777061241 | 24.44° C | 26% | 1009.8 hPa | 0 mm | - | 533 W/m² | - |
| 1777060941 | 23.89° C | 25% | 1010.2 hPa | 0 mm | - | 536 W/m² | - |
| 1777060640 | 23.89° C | 26% | 1010.2 hPa | 0 mm | - | 541 W/m² | - |
| 1777060341 | 24.44° C | 26% | 1010.2 hPa | 0 mm | - | 548 W/m² | - |
| 1777060041 | 24.44° C | 26% | 1010.2 hPa | 0 mm | - | 556 W/m² | - |
| 1777059740 | 23.89° C | 26% | 1010.5 hPa | 0 mm | - | 558 W/m² | - |
* Rain latest hour (hover to see other rain measurements)
** Current wind speed in m/s (hover to see current wind gust speed)